Notices

What's New in latest Release from April 7th, 2021:

- Updated Glossary, including Speed of Maximum Gust, and Total Hourly Precipitation

- Updated national and regional climate services offices contacts and prices information

- Addition of station inventory lists for 1981-2010, 1971-2000, and 1961-1990 Normals.

If you haven't already, please take our survey and provide feedback about our website: https://eccc.sondage-survey.ca/f/LanguageSelection.aspx?s=442ca660-fcf1-47c0-95a9-59707d6fd709

Hourly Data Report for June 13, 2015

KELOWNA UBCO
BRITISH COLUMBIA

49°56'26.700" N
119°24'00.760" W
456.00 m
1123996
71644
VKU

Download Data

Hourly Data (June 2015)
Hourly Data Report for June 13, 2015
TIME
LST
Temp Definition
°C
Dew Point Definition
°C
Rel Hum Definition
%
Precip. Amount Definition
mm

Wind Dir Definition
10's deg

Wind Spd Definition
km/h
Visibility Definition
km
Stn Press Definition
kPa
Hmdx Definition


Wind Chill Definition


Weather Definition


00:00 7.8 3.4 73 0.0       96.41     LegendNANA
01:00 7.6 3.5 75 0.0       96.40     LegendNANA
02:00 8.2 2.8 69 0.0       96.38     LegendNANA
03:00 7.3 2.6 72 0.0       96.39     LegendNANA
04:00 6.7 2.9 77 0.0       96.40     LegendNANA
05:00 7.8 2.8 71 0.0       96.43     LegendNANA
06:00 11.0 4.3 63 0.0       96.45     LegendNANA
07:00 12.8 3.9 55 0.0       96.44     LegendNANA
08:00 15.4 3.6 45 0.0       96.43     LegendNANA
09:00 17.0 2.5 38 0.0       96.38     LegendNANA
10:00 18.7 2.0 33 0.0       96.35     LegendNANA
11:00 20.2 2.6 31 0.0       96.29     LegendNANA
12:00 20.9 1.8 28 0.0       96.26     LegendNANA
13:00 20.1 1.9 30 0.0       96.24     LegendNANA
14:00 21.8 1.6 26 0.0       96.21     LegendNANA
15:00 21.9 -0.1 23 0.0       96.19     LegendNANA
16:00 22.2 -0.3 22 0.0       96.15     LegendNANA
17:00 22.3 3.3 29 0.0       96.14     LegendNANA
18:00 21.0 0.7 26 0.0       96.17     LegendNANA
19:00 19.5 2.3 32 0.0       96.18     LegendNANA
20:00 17.4 3.1 38 0.0       96.21     LegendNANA
21:00 14.9 4.1 48 0.0       96.26     LegendNANA
22:00 14.2 4.5 52 0.0       96.29     LegendNANA
23:00 12.5 4.6 59 0.0       96.34     LegendNANA

Notes on Data Quality.

Legend

  • E = Estimated
  • M = Missing
  • NA = Not Available*
  • [empty] = Indicates an unobserved value
Date modified: